Dean International
Flight School

Career Spotlight

Mika

Mika

Congratulations to Mika from Khazakstan. She recently sent us this photo of her flying an Airbus airliner.

More...
Mika's Success Story
close

Congratulations to Mika from Khazakstan. She recently sent us this photo of her flying an Airbus airliner.

Mario

Mario

My dreams could not have been realized if I wouldn't have been part of the Dean International family.

More...
Mario's Success Story
close

"My dreams could not have been realized if I wouldn't have been part of the Dean International family. Thank you Robert, thanks to all my co-workers, and thanks to all of my students!"

Fernando

Fernando

I am now working as a First Officer at TACA and am enjoying every moment of it.

More...
Fernando's Success Story
close

"Will never forget my time of flight training at Dean International. I am now working as a First Officer at TACA and am enjoying every moment of it."

Alvaro

Alvaro

Because of the flight time I was able to built while instructing, I got the experience needed to apply to an airline in Colombia.

More...
Alvaro's Success Story
close

Dean alumnus Alvaro Londoño currently flies with Tampa Cargo. He says of his experience at Dean: "I want to take this opportunity to thank you for giving me the chance to build my experience and expand my knowledge in Dean International. Because of the flight time I was able to built flight instructing, I got the experience needed to apply to an airline in Colombia."

Ralph

Ralph

Every Aruban student of Dean International has made it into Tiara Air Aruba, that is very nice.

More...
Ralph's Success Story
close

"Next to me is my Co-Pilot, Elison. This picture was taken on our first flight together, which was almost exactly 5 years after I finished at Dean International. [...] Every Aruban student of Dean International has made it into Tiara Air Aruba. [...] The future looks bright here in Aruba."

Rohaan

Rohaan

The [..] staff will all work diligently to help you finish your certificates as safely and efficiently as possible.

More...
Rohaan's Success Story
close

After receiving very hard times from other flight schools [...], I came to Dean International where Robert Dean personally sat down with me and gave me a financial and chronological look into how much remained to finish my private pilot certificate. Through his hard efforts as an instructor and mentor, I was able to finish my private pilot certificate within one week.

Welcome to Dean International

In over two decades, Dean International has educated over 7,000 pilots from all over the world, including over 1,000 students from India alone. By offering a great training experience, a friendly service staff, an ample variety of aircraft, and by improving constantly, we have become one of the largest, most prestigious FAA 141-approved flight schools in North America. Located in Miami, Florida, USA, our flight school offers an ideal location for year-round, "learn to fly" weather, flight training. Dean International is not only well-equipped to provide services to professional trainees but also caters to General Aviation renters. Visit or contact our headquarters at Kendall-Tamiami Executive Airport located in Miami, FL today to learn more about us, or simply read more about our programs if you are an international student interested in joining our school.

Local Airport Information
TAF FOR KTMB (Issued: Thu, July 24th 2014 6:39 PM UTC)
TAF KTMB 241736Z 2418/2518 14008KT P6SM VCTS SCT040CB BKN050 BKN100
      TEMPO 2418/2420 25010KT
      FM242100 14008KT P6SM FEW035 SCT100 BKN250
      FM250000 VRB03KT P6SM FEW025 SCT250
      FM251500 15008KT P6SM VCSH SCT025 SCT250
     
METAR FOR KTMB (Issued: Thu, July 24th 2014 7:00 PM UTC):
KTMB 241900Z 29006KT 10SM VCTS BR FEW034 FEW045 BKN120 29/23 A3005 RMK AO2 LTG DSNT N AND S T02890233

This weather information is provided by the National Weather Service.
It is automatically refreshed every three minutes.
TAF FOR KHST (Issued: Thu, July 24th 2014 5:54 PM UTC)
TAF
      AMD KHST 2417/2522 12009KT 9999 VCTS FEW025 SCT050CB QNH2998INS
      TEMPO 2417/2422 12012KT 4800 -TSRA BKN025CB
      BECMG 2423/2424 12006KT 9999 NSW FEW040 QNH3003INS
      BECMG 2511/2512 12006KT 9999 SCT025 QNH3005INS
      TEMPO 2516/2521 12010G15KT 4800 -TSRA BKN020CB TX33/2418Z TN27/2509Z
      AMD 241745
     
METAR FOR KHST (Issued: Thu, July 24th 2014 7:03 PM UTC):
KHST 241903Z AUTO 27006KT 10SM VCTS CLR 30/24 A3004 RMK AO2 LTG DSNT N

This weather information is provided by the National Weather Service.
It is automatically refreshed every three minutes.
TAF FOR KOPF (Issued: Thu, July 24th 2014 6:39 PM UTC)
TAF KOPF 241736Z 2418/2518 14008KT P6SM VCTS SCT025CB BKN250
      TEMPO 2418/2420 25010KT BKN025CB
      FM242100 14008KT P6SM FEW035 SCT100 BKN250
      FM250000 VRB03KT P6SM FEW025 SCT250
      FM251500 15008KT P6SM VCSH SCT025 SCT250
     
METAR FOR KOPF (Issued: Thu, July 24th 2014 6:53 PM UTC):
KOPF 241853Z 29007KT 10SM VCTS SCT046 BKN070 BKN110 27/23 A3006 RMK AO2 RAB11E51 SLP179 P0011 T02720233

This weather information is provided by the National Weather Service.
It is automatically refreshed every three minutes.
TAF FOR KMIA (Issued: Thu, July 24th 2014 6:42 PM UTC)
TAF KMIA 241736Z 2418/2518 14010KT P6SM VCTS SCT030CB BKN250
      TEMPO 2418/2420 25015KT
      FM242100 14008KT P6SM FEW035 SCT100 BKN250
      FM250000 VRB03KT P6SM FEW025 SCT250
      FM251500 15008KT P6SM VCSH SCT025 SCT250
     
METAR FOR KMIA (Issued: Thu, July 24th 2014 6:53 PM UTC):
KMIA 241853Z 12006KT 10SM BKN032CB BKN060 BKN250 31/23 A3005 RMK AO2 SLP176 CB SW-W MOV N TCU OHD-N-NE T03060233

This weather information is provided by the National Weather Service.
It is automatically refreshed every three minutes.
Design by Ariel Llizo
© Dean International Inc. 2012